FW3711 Weather Reports


Display with metric or nautical units.
time (UTC)temp
F
wind
direction
speed
MPH
gust
MPH
rain 1hr
in
rain 24hr
in
rain mn
in
humidity
%
barometer
mb
20200329065040 48 232 2.0 3.0 0.00 0.00 0.00 28 1025.1
20200329064614 48 234 1.0 3.0 0.00 0.00 0.00 28 1025.1
20200329064106 49 234 2.0 3.0 0.00 0.00 0.00 27 1025.1
20200329063539 49 253 2.0 3.0 0.00 0.00 0.00 27 1025.2
20200329063125 49 261 2.0 3.0 0.00 0.00 0.00 27 1025.0
20200329062539 48 244 2.0 3.0 0.00 0.00 0.00 27 1025.2
20200329061552 48 242 2.0 3.0 0.00 0.00 0.00 28 1025.1
20200329061106 48 226 1.0 3.0 0.00 0.00 0.00 28 1025.2
20200329060537 48 232 1.0 3.0 0.00 0.00 0.00 28 1025.2
20200329060140 49 236 1.0 3.0 0.00 0.00 0.00 27 1025.1
20200329055534 49 247 2.0 3.0 0.00 0.00 0.00 27 1025.0
20200329055042 49 247 1.0 2.0 0.00 0.00 0.00 26 1025.0
20200329054755 50 254 1.0 3.0 0.00 0.00 0.00 26 1024.9
20200329054031 50 256 2.0 3.0 0.00 0.00 0.00 26 1024.9
20200329053531 50 255 2.0 3.0 0.00 0.00 0.00 25 1024.9
20200329053039 50 248 2.0 3.0 0.00 0.00 0.00 26 1024.8
20200329052534 50 238 2.0 3.0 0.00 0.00 0.00 25 1024.9
20200329051608 50 236 2.0 3.0 0.00 0.00 0.00 25 1024.8
20200329051027 50 249 2.0 3.0 0.00 0.00 0.00 25 1024.8
20200329050545 50 234 2.0 3.0 0.00 0.00 0.00 25 1024.7
20200329050032 51 236 1.0 3.0 0.00 0.00 0.00 25 1024.7
20200329045526 51 234 1.0 3.0 0.00 0.00 0.00 24 1024.6
20200329045027 52 233 1.0 3.0 0.00 0.00 0.00 24 1024.5
20200329044537 52 236 2.0 4.0 0.00 0.00 0.00 23 1024.5
20200329044025 52 238 2.0 4.0 0.00 0.00 0.00 24 1024.6
20200329043536 51 242 2.0 3.0 0.00 0.00 0.00 24 1024.7
20200329043041 51 233 2.0 3.0 0.00 0.00 0.00 24 1024.6
20200329042524 51 234 2.0 3.0 0.00 0.00 0.00 24 1024.5
20200329041554 51 227 2.0 3.0 0.00 0.00 0.00 24 1024.3
20200329041031 52 236 1.0 3.0 0.00 0.00 0.00 23 1024.2
20200329040043 53 231 1.0 3.0 0.00 0.00 0.00 23 1024.0
20200329035535 53 246 1.0 3.0 0.00 0.00 0.00 22 1024.1
20200329035038 53 241 1.0 3.0 0.00 0.00 0.00 22 1024.1
20200329034534 54 235 1.0 3.0 0.00 0.00 0.00 21 1024.0
20200329034032 54 234 1.0 3.0 0.00 0.00 0.00 21 1024.0
20200329033524 55 229 1.0 3.0 0.00 0.00 0.00 21 1024.0
20200329033031 55 254 1.0 3.0 0.00 0.00 0.00 20 1023.8
20200329032522 55 251 2.0 3.0 0.00 0.00 0.00 20 1023.7
20200329031735 56 250 2.0 4.0 0.00 0.00 0.00 19 1023.5
20200329031048 56 238 2.0 4.0 0.00 0.00 0.00 19 1023.4
20200329030548 56 244 2.0 4.0 0.00 0.00 0.00 19 1023.4
20200329030131 56 229 2.0 3.0 0.00 0.00 0.00 19 1023.2
20200329025556 56 244 2.0 3.0 0.00 0.00 0.00 19 1023.0
20200329025047 57 241 2.0 3.0 0.00 0.00 0.00 19 1023.1
20200329024718 57 237 2.0 3.0 0.00 0.00 0.00 18 1022.9
20200329024055 57 224 2.0 4.0 0.00 0.00 0.00 18 1022.8
20200329023559 57 240 2.0 4.0 0.00 0.00 0.00 18 1022.7
20200329023116 57 244 2.0 3.0 0.00 0.00 0.00 18 1022.7
20200329022548 57 232 2.0 4.0 0.00 0.00 0.00 18 1022.6
20200329021523 57 243 2.0 4.0 0.00 0.00 0.00 18 1022.4
20200329021024 57 244 2.0 4.0 0.00 0.00 0.00 18 1022.2
20200329020523 57 238 2.0 4.0 0.00 0.00 0.00 18 1022.3
20200329015523 58 232 2.0 4.0 0.00 0.00 0.00 18 1022.1
20200329015018 58 228 2.0 4.0 0.00 0.00 0.00 17 1021.9
20200329014522 58 229 2.0 5.0 0.00 0.00 0.00 17 1022.1
20200329014017 59 233 2.0 6.0 0.00 0.00 0.00 17 1022.0
20200329013534 59 236 2.0 6.0 0.00 0.00 0.00 16 1021.9
20200329013057 59 236 2.0 7.0 0.00 0.00 0.00 16 1022.0
20200329012534 60 234 2.0 4.0 0.00 0.00 0.00 16 1021.8
20200329011656 61 239 3.0 7.0 0.00 0.00 0.00 15 1021.5
20200329011106 61 246 3.0 11.0 0.00 0.00 0.00 14 1021.5
20200329010600 61 251 4.0 11.0 0.00 0.00 0.00 14 1021.6
20200329010331 62 240 3.0 7.0 0.00 0.00 0.00 14 1021.6
20200329005554 62 242 3.0 13.0 0.00 0.00 0.00 14 1021.5
20200329005053 63 246 5.0 17.0 0.00 0.00 0.00 14 1021.6
20200329004644 62 232 7.0 17.0 0.00 0.00 0.00 14 1021.6
20200329004058 63 236 4.0 21.0 0.00 0.00 0.00 14 1021.7
20200329003555 63 247 5.0 21.0 0.00 0.00 0.00 14 1021.5
20200329003117 63 246 8.0 21.0 0.00 0.00 0.00 13 1021.7
20200329002611 64 238 5.0 9.0 0.00 0.00 0.00 13 1021.5
20200329001526 64 252 3.0 15.0 0.00 0.00 0.00 13 1021.4
20200329001017 64 230 4.0 17.0 0.00 0.00 0.00 13 1021.5
20200329000518 64 253 5.0 12.0 0.00 0.00 0.00 13 1021.4
20200329000020 64 255 4.0 9.0 0.00 0.00 0.00 13 1021.5
20200328235517 64 244 3.0 16.0 0.00 0.00 0.00 13 1021.4
20200328235017 64 250 5.0 14.0 0.00 0.00 0.00 13 1021.5
20200328234552 64 260 4.0 15.0 0.00 0.00 0.00 13 1021.7
20200328234033 64 244 7.0 18.0 0.00 0.00 0.00 13 1021.6
20200328233515 64 222 3.0 11.0 0.00 0.00 0.00 13 1021.4
20200328233039 64 226 4.0 10.0 0.00 0.00 0.00 13 1021.3
20200328232535 65 246 4.0 11.0 0.00 0.00 0.00 13 1021.4
20200328231521 64 282 5.0 14.0 0.00 0.00 0.00 13 1021.2
20200328231014 65 216 4.0 10.0 0.00 0.00 0.00 13 1021.3
20200328230520 65 240 4.0 12.0 0.00 0.00 0.00 13 1021.0
20200328230039 64 254 3.0 12.0 0.00 0.00 0.00 13 1021.1
20200328225514 65 223 4.0 17.0 0.00 0.00 0.00 13 1021.2
20200328225013 65 252 4.0 17.0 0.00 0.00 0.00 13 1021.1
20200328224525 65 265 6.0 16.0 0.00 0.00 0.00 13 1020.8
20200328224013 65 269 4.0 16.0 0.00 0.00 0.00 13 1021.0
20200328223516 65 252 6.0 16.0 0.00 0.00 0.00 13 1021.0
20200328223028 65 257 4.0 18.0 0.00 0.00 0.00 14 1021.1
20200328222514 65 242 5.0 18.0 0.00 0.00 0.00 14 1020.9
20200328221525 65 250 4.0 18.0 0.00 0.00 0.00 14 1020.8
20200328221010 64 252 8.0 18.0 0.00 0.00 0.00 14 1020.9
20200328220511 65 261 4.0 17.0 0.00 0.00 0.00 14 1020.8
20200328220012 65 246 4.0 19.0 0.00 0.00 0.00 14 1020.9
20200328215510 64 254 8.0 19.0 0.00 0.00 0.00 14 1020.8
20200328215017 64 239 7.0 18.0 0.00 0.00 0.00 14 1020.8
20200328214524 64 248 8.0 19.0 0.00 0.00 0.00 14 1020.7
20200328214009 65 257 6.0 19.0 0.00 0.00 0.00 13 1020.7
20200328213523 64 223 6.0 17.0 0.00 0.00 0.00 15 1020.9
20200328213035 64 259 5.0 20.0 0.00 0.00 0.00 15 1020.7
20200328212510 64 257 7.0 18.0 0.00 0.00 0.00 14 1020.9
20200328211514 65 259 7.0 19.0 0.00 0.00 0.00 14 1021.0
20200328211010 64 246 3.0 16.0 0.00 0.00 0.00 14 1021.1
20200328210515 64 248 5.0 15.0 0.00 0.00 0.00 14 1021.0
20200328210021 64 280 4.0 17.0 0.00 0.00 0.00 13 1021.1
20200328205509 64 236 4.0 20.0 0.00 0.00 0.00 14 1021.2
20200328205009 65 223 4.0 16.0 0.00 0.00 0.00 14 1021.2
20200328204512 64 258 2.0 16.0 0.00 0.00 0.00 14 1021.3
20200328204008 64 252 3.0 10.0 0.00 0.00 0.00 14 1021.4
20200328203509 63 261 5.0 10.0 0.00 0.00 0.00 14 1021.3
20200328203012 64 288 3.0 10.0 0.00 0.00 0.00 13 1021.5
20200328202507 64 252 2.0 10.0 0.00 0.00 0.00 14 1021.6
20200328201510 63 220 2.0 15.0 0.00 0.00 0.00 14 1021.7
20200328201005 62 252 2.0 14.0 0.00 0.00 0.00 15 1021.7
20200328200505 62 257 4.0 14.0 0.00 0.00 0.00 14 1021.7
20200328200005 62 265 2.0 5.0 0.00 0.00 0.00 14 1021.7
20200328195504 62 240 3.0 9.0 0.00 0.00 0.00 14 1021.7
20200328195004 62 269 3.0 9.0 0.00 0.00 0.00 14 1021.7
20200328194505 62 233 2.0 5.0 0.00 0.00 0.00 14 1021.8
20200328194009 62 277 3.0 6.0 0.00 0.00 0.00 14 1021.9
20200328193505 62 234 3.0 7.0 0.00 0.00 0.00 14 1021.8
20200328193006 61 243 2.0 8.0 0.00 0.00 0.00 15 1022.0
20200328192502 61 221 2.0 8.0 0.00 0.00 0.00 15 1022.0
20200328191505 62 251 2.0 13.0 0.00 0.00 0.00 15 1022.2
20200328191006 61 219 2.0 13.0 0.00 0.00 0.00 15 1022.2
20200328190504 61 281 3.0 8.0 0.00 0.00 0.00 14 1022.2
20200328190003 61 228 3.0 10.0 0.00 0.00 0.00 15 1022.1
20200328185502 62 244 4.0 10.0 0.00 0.00 0.00 15 1022.1
20200328185002 62 273 2.0 8.0 0.00 0.00 0.00 14 1022.3
20200328184502 61 269 2.0 5.0 0.00 0.00 0.00 15 1022.2
20200328184005 60 246 2.0 8.0 0.00 0.00 0.00 13 1021.9
20200328183604 61 280 2.0 8.0 0.00 0.00 0.00 14 1022.2
20200328183218 60 229 3.0 8.0 0.00 0.00 0.00 16 1022.2
20200328182559 60 252 2.0 16.0 0.00 0.00 0.00 15 1022.2
20200328181614 61 256 2.0 8.0 0.00 0.00 0.00 16 1022.4
20200328181057 60 220 2.0 8.0 0.00 0.00 0.00 14 1022.3
20200328180555 59 252 1.0 3.0 0.00 0.00 0.00 14 1022.5
20200328180212 60 340 2.0 8.0 0.00 0.00 0.00 13 1022.4
20200328175554 60 326 2.0 10.0 0.00 0.00 0.00 14 1022.4
20200328175056 60 233 3.0 6.0 0.00 0.00 0.00 14 1022.6
20200328174739 60 277 3.0 14.0 0.00 0.00 0.00 14 1022.6
20200328174051 59 252 2.0 14.0 0.00 0.00 0.00 13 1022.6
20200328173608 58 228 2.0 8.0 0.00 0.00 0.00 14 1022.5
20200328173128 58 250 2.0 4.0 0.00 0.00 0.00 14 1022.7
20200328172547 58 244 2.0 4.0 0.00 0.00 0.00 14 1022.8
20200328171624 59 282 2.0 4.0 0.00 0.00 0.00 13 1022.8
20200328171045 59 250 2.0 4.0 0.00 0.00 0.00 15 1022.8
20200328170543 57 258 1.0 3.0 0.00 0.00 0.00 14 1023.1
20200328170049 56 280 1.0 3.0 0.00 0.00 0.00 16 1022.8
20200328165059 55 46 1.0 3.0 0.00 0.00 0.00 17 1023.0
20200328164648 55 49 1.0 3.0 0.00 0.00 0.00 18 1023.1
20200328164039 55 299 0.0 2.0 0.00 0.00 0.00 18 1023.1
20200328163539 54 286 1.0 4.0 0.00 0.00 0.00 18 1023.0
20200328163054 54 273 1.0 4.0 0.00 0.00 0.00 18 1023.0
20200328162537 54 274 1.0 2.0 0.00 0.00 0.00 17 1023.0
20200328161649 54 246 1.0 3.0 0.00 0.00 0.00 20 1023.0
20200328161032 53 222 1.0 2.0 0.00 0.00 0.00 20 1022.8
20200328160531 53 223 1.0 4.0 0.00 0.00 0.00 21 1023.0
20200328160044 53 237 1.0 3.0 0.00 0.00 0.00 21 1023.0
20200328155528 53 231 2.0 3.0 0.00 0.00 0.00 21 1022.5
20200328155101 52 205 1.0 3.0 0.00 0.00 0.00 22 1022.7
20200328154543 52 229 1.0 3.0 0.00 0.00 0.00 22 1022.6
20200328154028 52 223 2.0 3.0 0.00 0.00 0.00 23 1022.6
20200328153529 51 219 1.0 4.0 0.00 0.00 0.00 21 1022.6
20200328153124 51 242 2.0 4.0 0.00 0.00 0.00 22 1022.4
20200328152522 51 244 2.0 4.0 0.00 0.00 0.00 23 1022.4
20200328151546 50 251 2.0 4.0 0.00 0.00 0.00 23 1022.4
20200328151034 50 252 2.0 4.0 0.00 0.00 0.00 23 1022.2
20200328150520 50 246 2.0 4.0 0.00 0.00 0.00 24 1022.2
20200328150019 50 245 2.0 3.0 0.00 0.00 0.00 25 1022.3
20200328145513 49 230 2.0 3.0 0.00 0.00 0.00 25 1022.2
20200328145011 49 235 2.0 3.0 0.00 0.00 0.00 25 1022.2
20200328144524 49 245 2.0 3.0 0.00 0.00 0.00 27 1022.1
20200328144018 48 242 2.0 3.0 0.00 0.00 0.00 27 1022.0
20200328143508 48 221 2.0 4.0 0.00 0.00 0.00 29 1022.2
20200328143027 47 236 2.0 4.0 0.00 0.00 0.00 30 1022.2
20200328142505 47 242 2.0 4.0 0.00 0.00 0.00 30 1022.0
20200328141507 46 246 2.0 3.0 0.00 0.00 0.00 32 1021.8
20200328141024 45 238 2.0 4.0 0.00 0.00 0.00 33 1021.7
20200328140505 45 236 2.0 4.0 0.00 0.00 0.00 33 1021.9
20200328140003 44 240 2.0 4.0 0.00 0.00 0.00 34 1021.9
20200328135502 44 242 2.0 4.0 0.00 0.00 0.00 34 1021.9
20200328135000 43 240 2.0 3.0 0.00 0.00 0.00 34 1021.7
20200328134934 43 242 2.0 3.0 0.00 0.00 0.00 34 1021.5
20200328134058 43 246 2.0 4.0 0.00 0.00 0.00 35 1021.5
20200328133557 42 225 2.0 4.0 0.00 0.00 0.00 35 1021.3
20200328133146 42 243 2.0 4.0 0.00 0.00 0.00 35 1021.0
20200328132600 41 248 2.0 4.0 0.00 0.00 0.00 36 1021.0
20200328131630 41 246 2.0 4.0 0.00 0.00 0.00 36 1020.8
20200328131052 41 227 2.0 3.0 0.00 0.00 0.00 36 1020.9
20200328130601 41 236 2.0 3.0 0.00 0.00 0.00 36 1020.9
20200328130138 41 231 2.0 3.0 0.00 0.00 0.00 36 1020.9
20200328125547 41 228 2.0 3.0 0.00 0.00 0.00 36 1020.8
20200328125046 41 230 2.0 3.0 0.00 0.00 0.00 36 1020.7
20200328124600 41 223 2.0 3.0 0.00 0.00 0.00 36 1020.6
20200328124054 41 229 2.0 3.0 0.00 0.00 0.00 36 1020.7
20200328123550 41 227 2.0 3.0 0.00 0.00 0.00 35 1020.4
20200328123124 41 230 2.0 3.0 0.00 0.00 0.00 35 1020.4
20200328122607 41 246 2.0 3.0 0.00 0.00 0.00 35 1020.3
20200328121744 42 240 1.0 3.0 0.00 0.00 0.00 34 1020.4
20200328121053 43 240 1.0 3.0 0.00 0.00 0.00 33 1020.3
20200328120602 43 239 2.0 3.0 0.00 0.00 0.00 32 1020.2
20200328120144 43 241 2.0 3.0 0.00 0.00 0.00 32 1020.1
20200328115553 43 231 2.0 4.0 0.00 0.00 0.00 32 1019.8
20200328115100 43 244 2.0 4.0 0.00 0.00 0.00 32 1019.8
20200328114704 44 240 2.0 4.0 0.00 0.00 0.00 31 1019.6
20200328114057 44 245 2.0 4.0 0.00 0.00 0.00 31 1019.5
20200328113547 44 242 2.0 4.0 0.00 0.00 0.00 30 1019.5
20200328113109 45 265 2.0 4.0 0.00 0.00 0.00 30 1019.5
20200328112548 45 263 2.0 3.0 0.00 0.00 0.00 29 1019.5
20200328111539 46 254 1.0 3.0 0.00 0.00 0.00 28 1019.2
20200328111031 46 263 2.0 3.0 0.00 0.00 0.00 28 1019.2
20200328110538 46 266 1.0 3.0 0.00 0.00 0.00 28 1019.0
20200328110056 46 256 2.0 4.0 0.00 0.00 0.00 28 1019.0
20200328105540 46 271 2.0 5.0 0.00 0.00 0.00 29 1018.9
20200328105029 46 271 3.0 5.0 0.00 0.00 0.00 29 1018.9
20200328104600 46 282 2.0 4.0 0.00 0.00 0.00 29 1018.7
20200328104028 47 277 2.0 7.0 0.00 0.00 0.00 27 1018.6
20200328103531 48 278 2.0 10.0 0.00 0.00 0.00 27 1018.4
20200328103042 48 269 2.0 10.0 0.00 0.00 0.00 26 1018.2
20200328102523 48 261 2.0 10.0 0.00 0.00 0.00 26 1018.1
20200328101628 49 248 3.0 11.0 0.00 0.00 0.00 24 1018.1
20200328101029 49 244 4.0 10.0 0.00 0.00 0.00 24 1018.0
20200328100524 49 244 3.0 10.0 0.00 0.00 0.00 24 1018.0
20200328100047 49 277 3.0 13.0 0.00 0.00 0.00 24 1017.7
20200328095522 49 246 4.0 16.0 0.00 0.00 0.00 24 1017.8
20200328095040 49 248 4.0 16.0 0.00 0.00 0.00 24 1017.6
20200328094531 49 263 3.0 13.0 0.00 0.00 0.00 25 1017.3
20200328094022 49 247 4.0 14.0 0.00 0.00 0.00 25 1017.0
20200328093520 49 246 5.0 16.0 0.00 0.00 0.00 25 1017.0
20200328093019 49 252 5.0 16.0 0.00 0.00 0.00 25 1016.9
20200328092518 49 251 8.0 15.0 0.00 0.00 0.00 26 1017.0
20200328091021 50 271 3.0 15.0 0.00 0.00 0.00 26 1016.7
20200328090521 50 273 4.0 15.0 0.00 0.00 0.00 27 1016.6
20200328090105 50 238 4.0 15.0 0.00 0.00 0.00 27 1016.8
20200328085522 50 245 3.0 14.0 0.00 0.00 0.00 27 1016.7
20200328085020 50 261 4.0 17.0 0.00 0.00 0.00 27 1016.5
20200328084514 50 253 4.0 18.0 0.00 0.00 0.00 27 1016.3
20200328084033 50 265 6.0 17.0 0.00 0.00 0.00 27 1016.4
20200328083517 50 255 6.0 17.0 0.00 0.00 0.00 27 1016.1
20200328083029 51 269 5.0 24.0 0.00 0.00 0.00 27 1016.3
20200328082511 51 267 8.0 24.0 0.00 0.00 0.00 27 1016.0
20200328081507 51 259 8.0 26.0 0.00 0.00 0.00 28 1015.7
20200328081007 51 244 11.0 26.0 0.00 0.00 0.00 28 1015.8
20200328080502 51 269 6.0 19.0 0.00 0.00 0.00 28 1015.7
20200328080006 51 244 8.0 19.0 0.00 0.00 0.00 28 1015.6
20200328075506 51 257 7.0 26.0 0.00 0.00 0.00 28 1015.4
20200328075002 51 238 8.0 26.0 0.00 0.00 0.00 29 1015.5
20200328074645 51 250 10.0 22.0 0.00 0.00 0.00 29 1015.5
20200328074059 51 257 7.0 23.0 0.00 0.00 0.00 30 1015.5
20200328073559 51 256 10.0 27.0 0.00 0.00 0.00 30 1015.5
20200328073351 51 243 9.0 28.0 0.00 0.00 0.00 31 1015.5
20200328072556 51 252 13.0 28.0 0.00 0.00 0.00 30 1015.5
20200328071701 52 244 9.0 21.0 0.00 0.00 0.00 31 1015.4
20200328071055 52 261 6.0 19.0 0.00 0.00 0.00 31 1015.2
20200328070615 53 277 7.0 24.0 0.00 0.00 0.00 31 1014.9
20200328070239 53 246 7.0 24.0 0.00 0.00 0.00 32 1014.8
20200328065557 53 259 10.0 20.0 0.00 0.00 0.00 32 1014.9